Flag for United Kingdom Weather past 2 weeks in Bradford, England, United Kingdom

Now
46 °F

Fog.


Feels Like: 46 °F
Forecast: 43 / 54 °F
Wind: 2 mph from North

Location: Leeds And Bradford


UV Index: 0 (Low)

Visibility: 2 mi


Pressure: 30.07 "Hg

Humidity: 100%

Dew point: 46 °F

Location of BradfordLocation

Historic Weather in Bradford

°F

Bradford temperature yesterday

Maximum temperature yesterday: 59 °F (at 1:50 PM)
Minimum temperature yesterday: 48 °F (at 12:20 AM)
Average temperature yesterday: 52 °F

Past Weeks' High & Low Weather Summary

 TemperatureHumidityPressure
High63 °F (Apr 21, 2:20 PM)100% (Apr 11, 6:50 AM)30.42 "Hg (Apr 11, 6:50 AM)
Low32 °F (Apr 19, 5:50 AM)29% (Apr 16, 2:50 PM)29.71 "Hg (Apr 22, 4:20 AM)
Average47 °F78%30.06 "Hg
* Reported Apr 9 3:20 AM — Apr 24 3:20 AM, Bradford, Weather by CustomWeather, © 2014

Note: Actual official high and low records may vary slightly from our data, if they occured in-between our weather recording intervals... More about our weather records

Advertising

Historic Weather Conditions — Data for Previous 24 hours

 ConditionsComfort  
Time TempWeatherWind HumidityBarometerVisibility
3:20 AM
Apr 24
46 °FFog.5 mph100%30.07 "Hg1 mi
2:50 AM46 °FLight rain. Passing clouds.3 mph100%30.07 "Hg4 mi
2:20 AM46 °FLight rain. Passing clouds.3 mph100%30.07 "Hg4 mi
1:50 AM46 °FLight rain. Passing clouds.2 mph100%30.07 "HgN/A
1:20 AM46 °FLight rain. Passing clouds.2 mph100%30.07 "HgN/A
12:50 AM46 °FLight rain. Passing clouds.3 mph100%30.07 "HgN/A
12:20 AM48 °FLight rain. Passing clouds.5 mph94%30.07 "HgN/A
11:20 PM
Apr 23
48 °FLight rain. Passing clouds.6 mph100%30.04 "HgN/A
10:50 PM50 °FLight rain. Passing clouds.5 mph100%30.04 "HgN/A
10:20 PM50 °FLight rain. Passing clouds.6 mph100%30.04 "HgN/A
9:50 PM50 °FLight rain. Passing clouds.6 mph100%30.04 "HgN/A
9:20 PM50 °FLight rain. Partly sunny.7 mph94%30.04 "HgN/A
8:50 PM52 °FLight rain. Partly sunny.5 mph88%30.04 "HgN/A
8:20 PM52 °FLight rain. Partly sunny.8 mph88%30.04 "Hg6 mi
7:50 PM54 °FLight rain. Partly sunny.8 mph82%30.01 "Hg6 mi
7:20 PM55 °FLight rain. Partly sunny.7 mph67%30.01 "HgN/A
6:50 PM55 °FLight rain. Partly sunny.12 mph72%30.01 "HgN/A
6:20 PM55 °FPartly sunny.8 mph67%29.98 "HgN/A
5:50 PM55 °FScattered clouds.10 mph67%29.98 "HgN/A
5:20 PM57 °FLight rain. Scattered clouds.12 mph63%29.98 "HgN/A
4:50 PM57 °FScattered clouds.12 mph59%29.98 "HgN/A
4:20 PM59 °FScattered clouds.13 mph63%29.98 "HgN/A
3:50 PM57 °FLight rain. Scattered clouds.12 mph67%29.98 "HgN/A
3:20 PM59 °FLight rain. Scattered clouds.13 mph59%29.98 "HgN/A
2:50 PM59 °FScattered clouds.13 mph59%29.98 "HgN/A
1:50 PM59 °FScattered clouds.10 mph63%29.98 "HgN/A
1:20 PM57 °FScattered clouds.14 mph63%29.98 "HgN/A
12:50 PM57 °FScattered clouds.12 mph67%29.98 "HgN/A
12:20 PM57 °FScattered clouds.12 mph67%29.98 "HgN/A
11:50 AM57 °FPassing clouds.13 mph67%29.98 "HgN/A
11:20 AM55 °FPassing clouds.13 mph72%29.98 "HgN/A
10:50 AM54 °FPassing clouds.10 mph77%29.98 "HgN/A
10:20 AM55 °FScattered clouds.10 mph72%29.98 "HgN/A
9:50 AM52 °FScattered clouds.9 mph82%29.98 "HgN/A
9:20 AM54 °FPassing clouds.9 mph77%29.98 "HgN/A
8:50 AM52 °FPassing clouds.9 mph82%29.95 "HgN/A
8:20 AM50 °FPassing clouds.6 mph94%29.95 "Hg4 mi
7:50 AM48 °FFog.5 mph100%29.95 "Hg1 mi
7:20 AM48 °FFog.5 mph100%29.95 "Hg1 mi
6:50 AM48 °FSleet. Cloudy.5 mph100%29.92 "Hg1 mi
6:20 AM48 °FFog.6 mph100%29.92 "Hg1 mi
5:50 AM48 °FFog.5 mph94%29.92 "Hg2 mi
5:20 AM48 °FFog.6 mph94%29.92 "Hg3 mi
4:50 AM48 °FPassing clouds.6 mph94%29.89 "Hg4 mi
4:20 AM48 °FClear.7 mph94%29.89 "Hg4 mi
Weather by CustomWeather, © 2014

See weather overview